Helicity
310 325 298 299 287 283 271 257 330 342 368 288 326 253 224 156 111 97 53 -6 54 75 27 7 9 43 68 64 64 73 83 94 97 108 109 95 85 103
464 351 299 290 222 216 208 284 270 326 400 363 374 371 300 217 135 99 46 52 105 90 41 44 51 81 75 63 61 58 59 81 86 102 107 103 96 93
505 512 331 272 287 271 253 260 262 338 437 475 493 477 426 255 166 123 108 145 143 212 188 146 125 106 94 112 107 89 75 72 63 85 100 111 109 109
461 479 407 415 375 287 317 302 331 393 384 481 502 523 424 276 242 269 257 214 176 191 171 155 136 152 171 173 125 93 95 92 97 112 97 101 108 113
395 413 405 351 307 348 385 332 330 347 412 447 488 466 383 324 333 284 214 178 152 151 138 145 160 174 151 125 111 100 111 112 151 123 120 114 115 114
340 364 323 295 325 324 286 303 350 399 406 399 409 371 326 294 293 256 188 114 119 120 128 138 145 144 152 155 141 137 127 149 155 172 180 165 151 137
371 340 328 300 309 305 306 361 397 451 390 305 315 316 294 274 258 155 100 71 105 129 141 139 107 121 129 157 139 137 137 144 177 188 163 137 115 120
370 397 384 377 424 463 473 436 364 278 271 277 279 238 249 188 137 98 73 77 109 111 98 127 98 109 111 110 117 126 117 119 130 133 138 182 182 151
451 435 378 342 352 356 347 340 303 287 267 249 214 177 163 147 123 106 99 90 82 100 100 88 95 98 104 92 96 91 118 137 146 192 177 148 131 119
396 357 280 256 255 260 261 260 254 213 186 164 147 141 127 124 113 106 103 112 127 121 92 96 98 95 65 108 75 93 127 176 194 151 137 115 105 101
306 236 239 241 201 177 192 184 194 214 197 120 109 113 118 124 128 137 131 118 112 101 75 99 71 70 64 53 43 80 99 123 89 91 77 91 97 100
260 232 172 176 141 132 147 164 166 155 158 151 152 145 145 144 150 135 124 127 130 101 72 78 81 62 22 21 62 105 90 51 40 69 84 91 100 107
260 225 180 127 115 109 125 129 127 124 138 143 144 152 163 152 139 135 115 132 120 112 108 129 129 118 140 146 154 138 79 51 64 90 86 86 86 104
202 214 151 92 83 89 112 96 101 128 128 133 148 157 153 139 137 137 139 140 136 122 129 142 156 143 144 146 134 97 76 62 78 98 89 73 75 93
173 136 92 61 79 91 87 83 101 111 117 130 125 122 127 130 163 167 153 159 140 135 130 135 159 152 178 176 138 97 71 72 78 66 95 95 96 108
87 80 72 104 128 113 106 80 101 102 108 114 119 128 149 186 183 154 147 128 139 129 101 101 124 160 177 165 149 117 120 124 100 86 91 103 95 98
157 176 179 172 127 104 97 84 89 112 112 127 143 162 186 176 133 125 127 137 133 127 132 114 112 129 158 156 148 142 132 122 113 117 100 94 86 98
178 164 157 140 117 101 96 90 107 109 127 174 180 170 144 137 134 144 140 141 139 136 136 114 106 126 130 132 80 132 141 134 124 118 96 87 74 108
156 161 135 121 92 103 111 125 136 144 171 171 175 161 164 166 161 155 141 134 144 119 96 106 130 145 130 137 139 65 124 129 107 109 109 99 72 84
135 140 110 109 102 114 144 156 153 199 193 193 200 195 187 176 173 156 141 137 117 104 117 118 135 147 148 147 140 129 42 108 115 108 93 75 79 4
116 113 117 120 113 125 143 170 201 198 203 225 213 208 189 194 179 154 136 120 131 133 129 131 133 116 148 144 163 154 139 49 56 95 60 18 -3 27
90 92 108 128 144 161 172 179 209 228 228 226 210 196 185 191 168 150 148 151 151 144 141 141 141 137 131 144 145 119 106 112 95 52 -16 -68 -45 13
76 93 114 133 167 199 225 232 229 231 229 215 207 202 210 196 187 179 170 160 148 146 144 147 128 131 135 127 111 119 98 90 66 66 112 56 9 -5
Wind_Speed
36 35 32 37 38 37 35 36 39 44 47 40 44 32 28 29 29 32 36 41 46 47 40 43 48 56 59 61 61 63 63 67 69 69 69 69 68 70
28 36 37 40 36 39 36 39 41 40 47 47 47 32 31 30 29 32 37 42 45 43 45 46 51 57 61 64 63 62 67 71 71 72 71 69 74 76
39 37 39 37 37 37 34 29 34 42 49 47 39 35 35 35 31 35 39 42 42 43 47 52 59 63 64 61 62 66 72 73 72 74 72 75 77 81
41 39 39 32 32 35 29 34 37 41 41 39 40 40 40 37 35 35 39 42 43 50 55 62 64 61 63 67 72 73 72 76 75 73 78 80 79 86
39 39 37 37 40 34 33 35 39 41 40 44 45 42 39 36 38 39 42 47 51 58 61 59 61 65 70 74 73 73 76 75 76 80 81 81 87 91
30 30 32 29 29 28 31 34 36 42 42 43 46 44 43 41 43 52 53 56 60 60 58 62 69 72 73 73 73 76 75 77 81 84 85 91 95 97
26 26 24 25 24 27 30 34 39 40 43 44 41 43 47 52 54 52 53 57 62 57 65 70 72 73 72 73 74 76 81 84 87 90 94 96 96 94
23 21 19 19 22 27 34 40 41 40 42 41 46 49 51 50 46 50 55 61 65 54 73 76 69 73 70 73 77 79 85 89 90 88 84 86 91 94
20 20 23 26 32 35 35 37 39 41 41 43 47 48 46 44 45 52 55 60 66 70 72 76 67 73 70 73 86 87 81 76 74 78 88 92 92 94
21 22 27 31 33 37 37 40 41 39 39 36 36 36 35 39 44 51 59 63 67 69 65 77 70 77 76 84 80 73 67 67 81 90 86 88 91 94
25 28 31 31 32 32 38 40 38 37 34 31 30 34 38 46 53 53 62 68 74 72 64 70 71 90 86 80 68 60 62 83 87 88 85 90 94 97
25 27 30 29 27 29 33 33 35 34 30 31 36 43 48 51 52 53 58 67 71 76 58 81 83 83 86 71 57 79 76 80 86 84 90 90 94 93
28 29 28 22 23 23 25 29 30 28 31 38 45 47 48 49 52 53 51 58 68 72 73 76 78 81 77 90 79 79 78 80 85 85 87 92 90 88
28 26 22 16 17 18 22 26 27 32 36 43 44 46 49 52 53 49 55 61 64 70 70 72 79 83 88 90 89 76 84 82 83 90 87 83 85 87
17 14 10 10 12 16 21 28 30 34 39 41 44 47 48 51 50 56 60 64 67 70 73 73 75 76 75 83 87 86 95 93 85 76 82 84 80 78
8 8 7 9 14 19 29 33 34 36 39 44 48 51 51 50 57 61 69 73 77 77 66 66 68 72 77 74 81 90 87 83 86 84 81 84 85 81
7 8 8 12 19 29 37 35 34 34 40 44 48 50 51 56 61 62 68 73 78 81 80 71 69 67 68 77 83 81 85 84 81 86 89 91 82 81
10 8 13 19 26 32 33 35 35 38 41 44 45 46 52 60 66 68 69 74 81 81 80 77 76 80 81 75 64 78 81 85 85 86 85 88 90 88
15 16 19 24 29 32 34 37 37 40 37 38 43 51 59 65 69 72 73 76 79 78 76 76 80 84 91 93 77 66 82 86 88 85 82 86 94 98
17 17 20 22 28 33 35 32 32 32 38 44 51 56 61 65 69 72 74 76 77 78 81 79 77 76 80 89 94 87 73 80 82 86 90 89 93 105
13 14 20 24 30 31 29 27 30 37 43 49 54 57 59 64 70 71 71 72 76 79 83 82 76 72 75 78 81 80 77 69 73 82 97 100 102 99
14 17 20 22 25 26 27 30 37 42 47 51 55 57 60 64 68 68 71 76 78 79 81 78 75 75 72 74 78 78 80 78 75 77 95 92 95 95
14 18 23 24 23 26 31 36 41 46 49 52 55 59 63 66 65 68 72 76 78 79 78 81 75 70 71 69 69 74 80 88 95 97 87 85 81 85
Wind_Direction
274 279 284 289 296 301 301 290 287 290 292 298 304 297 300 309 314 319 322 320 323 326 327 326 326 325 326 326 326 325 326 324 323 323 324 323 322 318
283 281 287 289 294 296 298 295 289 295 295 300 302 298 301 307 310 315 318 320 324 327 326 325 324 323 323 322 322 323 321 320 320 321 321 321 318 314
276 278 284 286 291 291 297 292 293 298 297 304 306 307 306 306 309 314 317 321 325 329 327 324 321 320 321 322 321 320 318 318 319 319 319 317 315 310
274 278 279 283 285 289 288 290 296 303 298 296 303 306 307 309 310 316 320 322 323 324 322 320 319 321 321 319 316 316 317 316 317 318 315 314 311 307
275 276 274 280 282 283 285 290 298 301 302 297 299 305 306 309 311 315 316 316 317 318 318 320 320 320 317 316 316 316 317 317 316 315 313 310 307 305
281 280 285 283 283 284 291 295 300 303 303 301 302 298 301 310 310 307 309 311 313 315 318 318 317 317 317 318 317 317 317 317 315 313 311 308 305 303
283 284 284 287 290 293 295 300 305 304 303 302 300 300 300 302 304 309 310 312 313 314 315 316 317 317 318 319 319 318 316 314 313 311 309 307 305 303
275 277 280 289 297 303 305 308 307 303 303 302 300 299 301 305 309 310 312 312 310 316 315 313 319 317 319 320 319 318 315 313 313 312 312 311 308 305
269 272 281 290 297 300 304 306 309 311 308 304 302 303 305 309 312 312 313 312 310 312 316 314 319 317 320 320 318 316 317 317 317 316 313 311 308 304
272 277 285 292 296 299 301 305 308 311 311 312 311 311 315 316 314 313 313 313 312 313 317 314 319 317 319 319 319 320 320 321 318 316 314 311 308 304
276 283 287 292 296 299 300 301 306 313 322 317 317 315 315 314 313 314 314 313 313 316 320 316 320 318 319 319 321 323 322 319 317 315 313 309 306 302
279 284 287 293 295 303 303 304 306 309 314 317 316 314 314 315 317 317 317 315 317 317 323 319 320 323 319 322 323 319 318 317 315 314 311 309 307 305
279 283 287 292 299 310 313 314 315 315 315 314 311 314 316 318 320 321 323 322 319 318 320 321 320 320 318 315 317 318 317 317 315 313 312 309 308 306
278 288 293 292 302 310 318 321 321 318 316 316 315 316 317 319 322 324 324 323 323 321 323 322 319 318 316 315 316 319 318 317 316 313 312 311 310 308
291 295 296 295 308 317 322 322 321 319 318 318 318 319 321 323 325 324 324 325 324 323 322 322 320 319 319 317 317 318 316 315 315 315 314 312 312 312
292 304 309 313 317 318 319 319 319 319 320 320 320 322 324 324 324 324 323 323 322 322 325 325 323 322 319 319 318 316 316 315 315 315 314 312 311 310
313 315 312 313 311 313 316 318 321 323 322 322 322 323 323 323 324 325 324 323 321 322 323 325 325 323 321 319 317 317 316 315 316 315 314 311 311 310
311 314 311 310 313 317 318 320 322 322 323 325 325 325 324 323 323 324 324 323 322 323 324 325 325 323 321 321 318 318 317 316 316 315 313 310 308 308
314 315 315 315 318 321 321 321 323 326 329 329 328 326 325 325 325 324 325 325 324 325 325 325 324 323 320 318 321 323 318 318 316 315 313 310 306 302
322 322 322 325 326 326 327 328 329 333 331 329 328 327 327 326 326 326 326 325 325 324 324 324 324 323 321 319 319 320 321 318 317 315 312 309 304 293
342 339 335 331 332 334 334 333 332 330 329 329 328 328 329 328 327 327 326 326 325 324 323 323 324 325 323 322 320 320 322 322 319 317 307 300 293 294
350 344 345 344 343 341 340 336 333 332 331 330 330 330 330 329 327 327 327 325 324 324 323 324 326 326 326 324 322 322 323 324 323 318 292 278 288 287
359 353 349 347 346 344 341 337 334 333 333 332 332 331 330 329 329 328 326 325 324 324 324 324 326 327 325 324 324 324 324 321 311 303 311 287 272 270